This demonstration page uses our WeatherBlox Daily Observations layout. Learn more.

Left ArrowRight Arrow

39.29038, -76.61219

Hourly Observations for May 26, 2020

Temp ( °F °C ) Dew Point ( °F °C ) Humidity (%) Winds ( mph kmh ) Pressure ( in mb ) Visibility ( mi km ) Precip ( " mm )
12:54 am 00:54 undefined 66 18.9 60 15.6 81 81 undefined N/A 30.19 1022 N/A 0.00 0.00
1:54 am 01:54 undefined 65 18.3 60 15.6 84 84 undefined N/A 30.18 1022 N/A 0.00 0.00
2:54 am 02:54 undefined 64 17.8 60 15.6 87 87 undefined N/A 30.18 1022 N/A 0.00 0.00
3:54 am 03:54 undefined 64 17.8 61 16.1 90 90 undefined N/A 30.17 1022 N/A 0.00 0.00
4:54 am 04:54 undefined 63 17.2 60 15.6 90 90 undefined N/A 30.18 1022 N/A 0.00 0.00
5:54 am 05:54 undefined 63 17.2 61 16.1 93 93 undefined N/A 30.20 1023 N/A 0.00 0.00
6:54 am 06:54 undefined 62 16.7 61 16.1 96 96 undefined N/A 30.22 1023 N/A 0.00 0.00
7:54 am 07:54 undefined 63 17.2 61 16.1 93 93 undefined N/A 30.22 1023 N/A 0.00 0.00
8:54 am 08:54 undefined 65 18.3 61 16.1 87 87 undefined N/A 30.22 1024 N/A 0.00 0.00
9:54 am 09:54 undefined 69 20.6 62 16.7 78 78 undefined N/A 30.22 1024 N/A 0.00 0.00
10:54 am 10:54 undefined 72 22.2 63 17.2 73 73 undefined N/A 30.22 1024 N/A 0.00 0.00
11:54 am 11:54 undefined 74 23.3 64 17.8 71 71 undefined N/A 30.22 1024 N/A 0.00 0.00
12:54 pm 12:54 undefined 76 24.4 65 18.3 69 69 undefined N/A 30.22 1023 N/A 0.00 0.00
1:54 pm 13:54 undefined 77 25 63 17.2 62 62 undefined N/A 30.20 1023 N/A 0.00 0.00
2:54 pm 14:54 undefined 76 24.4 63 17.2 64 64 undefined N/A 30.19 1023 N/A 0.00 0.00
3:54 pm 15:54 undefined 77 25 64 17.8 64 64 undefined N/A 30.18 1022 N/A 0.00 0.00
4:54 pm 16:54 undefined 78 25.6 64 17.8 62 62 undefined N/A 30.17 1022 N/A 0.00 0.00
5:54 pm 17:54 undefined 75 23.9 63 17.2 66 66 undefined N/A 30.16 1022 N/A 0.00 0.00
6:54 pm 18:54 undefined 75 23.9 63 17.2 66 66 undefined N/A 30.16 1021 N/A 0.00 0.00
7:54 pm 19:54 undefined 73 22.8 63 17.2 71 71 undefined N/A 30.16 1021 N/A 0.00 0.00
8:54 pm 20:54 undefined 71 21.7 63 17.2 76 76 undefined N/A 30.16 1022 N/A 0.00 0.00
9:54 pm 21:54 undefined 70 21.1 63 17.2 79 79 undefined N/A 30.17 1022 N/A 0.00 0.00
10:54 pm 22:54 undefined 70 21.1 63 17.2 79 79 undefined N/A 30.17 1022 N/A 0.00 0.00
11:54 pm 23:54 undefined 69 20.6 63 17.2 81 81 undefined N/A 30.18 1022 N/A 0.00 0.00

Powered by AerisWeather